Regional Weather Roundup
Issued by NWS

Home | Current Version | Previous Version | Text Only | Print | Product List | Glossary Off
Versions: 1 2 3 4 5 6 7 8 9 10 11 12 13 14 15 16 17 18 19 20 21 22 23 24 25 26 27 28 29 30 31 32 33 34 35 36 37 38 39 40 41 42 43 44 45 46 47 48 49 50

658
ASUS44 KJAN 230610
RWRMS

MISSISSIPPI HOURLY WEATHER ROUNDUP
NATIONAL WEATHER SERVICE JACKSON MS
100 AM CDT WED APR 23 2014

NOTE: "FAIR: INDICATES FEW OR NO CLOUDS BELOW 12,000 FEET WITH NO
SIGNIFICANT WEATHER AND/OR OBSTRUCTIONS TO VISIBILITY.

MSZ001>002-007>008-010>013-018>021-025>028-034>036-230700-
NORTHWEST MISSISSIPPI

CITY           SKY/WX    TMP DP  RH WIND       PRES   REMARKS
CLARKSDALE       N/A     54  50  87 CALM      29.97R
CLEVELAND      FAIR      59  51  74 CALM      29.95S
GREENWOOD      FAIR      56  54  93 CALM      29.95S FOG
6HR MIN TEMP:  56; 6HR MAX TEMP:  74;

GREENVILLE     FAIR      59  52  77 CALM      29.95S
6HR MIN TEMP:  58; 6HR MAX TEMP:  73;

GRENADA        FAIR      52  50  93 CALM      29.96R
OLIVE BRANCH   CLEAR     54  46  76 CALM      29.97S
OXFORD         FAIR      48  45  87 NE3       29.97S
TUNICA         FAIR      54  48  82 CALM      29.97R
$$

MSZ003>006-009-014>017-022>024-029>033-037>039-230700-
NORTHEAST MISSISSIPPI

CITY           SKY/WX    TMP DP  RH WIND       PRES   REMARKS
BELMONT        FAIR      59  45  58 N3        29.95R
COLUMBUS AFB   FAIR      62  53  72 N6        29.93S
6HR MIN TEMP:  62; 6HR MAX TEMP:  74; 6HR PCP: TRACE;

CORINTH        FAIR      52  48  87 NW5       29.96S
GOLDN TRIANGLE FAIR      61  52  72 NW5       29.95S
STARKVILLE     FAIR      57  55  94 CALM      29.94R
TUPELO         FAIR      57  46  66 N8        29.94S
6HR MIN TEMP:  56; 6HR MAX TEMP:  75;

$$

MSZ040-058-230700-
CENTRAL MISSISSIPPI

CITY           SKY/WX    TMP DP  RH WIND       PRES   REMARKS
JACKSON INTL   FOG       57  56  96 CALM      29.95R VSB 3/4
6HR MIN TEMP:  57; 6HR MAX TEMP:  75;

JACKSON HAWKNS FAIR      64  59  83 NW5       29.95S
6HR MIN TEMP:  64; 6HR MAX TEMP:  75;

MERIDIAN KEY   FOG       57  56  96 CALM      29.92F VSB 1/4
6HR MIN TEMP:  56; 6HR MAX TEMP:  69;

MERIDIAN NAS   FAIR      58  56  93 W3        29.92S FOG
6HR MIN TEMP:  58; 6HR MAX TEMP:  69;

RAYMOND        HAZE      57  54  88 CALM      29.95S VSB<1/4
VICKSBURG      FAIR      61  59  93 CALM      29.95S
6HR MIN TEMP:  61; 6HR MAX TEMP:  76;

$$

MSZ059>079-230700-
SOUTH MISSISSIPPI

CITY           SKY/WX    TMP DP  RH WIND       PRES   REMARKS
BROOKHAVEN     FAIR      64  61  88 NW6       29.96F
HATTIESBURG    FAIR      58  57  97 CALM      29.93F FOG
6HR MIN TEMP:  58; 6HR MAX TEMP:  72;

MCCOMB         FAIR      60  58  92 CALM      29.95S
6HR MIN TEMP:  58; 6HR MAX TEMP:  74;

NATCHEZ        FAIR      57  55  94 CALM      29.96S
6HR MIN TEMP:  57; 6HR MAX TEMP:  73;

PINE BELT      FAIR      59  57  94 NW5       29.93F
6HR MIN TEMP:  57; 6HR MAX TEMP:  72;

$$

MSZ080>082-230700-
COASTAL MISSISSIPPI

CITY           SKY/WX    TMP DP  RH WIND       PRES   REMARKS
BILOXI         FAIR      66  65  95 NE2       29.91F
6HR MIN TEMP:  66; 6HR MAX TEMP:  71;

PASCAGOULA     FAIR      64  63  96 N3        29.91F FOG
6HR MIN TEMP:  62; 6HR MAX TEMP:  71;

GULFPORT       FAIR      68  63  84 N6        29.91S
6HR MIN TEMP:  68; 6HR MAX TEMP:  75; 6HR PCP: TRACE;

$$



USA.gov is the U.S. government's official web portal to all federal, state and local government web resources and services.